Year,Month,Day,Hour,Minute,Value (Times are PST for temperature in C)
2018,07,14,00,00,20.10
2018,07,14,00,01,20.10
2018,07,14,00,02,20.00
2018,07,14,00,03,20.00
2018,07,14,00,04,20.00
2018,07,14,00,05,19.90
2018,07,14,00,06,19.90
2018,07,14,00,07,19.90
2018,07,14,00,08,19.80
2018,07,14,00,09,19.80
2018,07,14,00,10,19.80
2018,07,14,00,11,19.80
2018,07,14,00,12,19.80
2018,07,14,00,13,19.80
2018,07,14,00,14,19.80
2018,07,14,00,15,19.80
2018,07,14,00,16,19.80
2018,07,14,00,17,19.80
2018,07,14,00,18,19.70
2018,07,14,00,19,19.70
2018,07,14,00,20,19.70
2018,07,14,00,21,19.70
2018,07,14,00,22,19.60
2018,07,14,00,23,19.60
2018,07,14,00,24,19.50
2018,07,14,00,25,19.50
2018,07,14,00,26,19.50
2018,07,14,00,27,19.40
2018,07,14,00,28,19.40
2018,07,14,00,29,19.40
2018,07,14,00,30,19.40
2018,07,14,00,31,19.40
2018,07,14,00,32,19.40
2018,07,14,00,33,19.40
2018,07,14,00,34,19.40
2018,07,14,00,35,19.40
2018,07,14,00,36,19.40
2018,07,14,00,37,19.40
2018,07,14,00,38,19.40
2018,07,14,00,39,19.40
2018,07,14,00,40,19.40
2018,07,14,00,41,19.40
2018,07,14,00,42,19.40
2018,07,14,00,43,19.40
2018,07,14,00,44,19.30
2018,07,14,00,45,19.30
2018,07,14,00,46,19.30
2018,07,14,00,47,19.30
2018,07,14,00,48,19.20
2018,07,14,00,49,19.20
2018,07,14,00,50,19.20
2018,07,14,00,51,19.20
2018,07,14,00,52,19.10
2018,07,14,00,53,19.10
2018,07,14,00,54,19.10
2018,07,14,00,55,19.10
2018,07,14,00,56,19.10
2018,07,14,00,57,19.00
2018,07,14,00,58,19.00
2018,07,14,00,59,19.00
2018,07,14,01,00,18.90
2018,07,14,01,01,18.90
2018,07,14,01,02,18.80
2018,07,14,01,03,18.80
2018,07,14,01,04,18.70
2018,07,14,01,05,18.70
2018,07,14,01,06,18.70
2018,07,14,01,07,18.60
2018,07,14,01,08,18.60
2018,07,14,01,09,18.60
2018,07,14,01,10,18.60
2018,07,14,01,11,18.60
2018,07,14,01,12,18.60
2018,07,14,01,13,18.70
2018,07,14,01,14,18.70
2018,07,14,01,15,18.70
2018,07,14,01,16,18.70
2018,07,14,01,17,18.70
2018,07,14,01,18,18.70
2018,07,14,01,19,18.70
2018,07,14,01,20,18.70
2018,07,14,01,21,18.70
2018,07,14,01,22,18.70
2018,07,14,01,23,18.70
2018,07,14,01,24,18.70
2018,07,14,01,25,18.70
2018,07,14,01,26,18.70
2018,07,14,01,27,18.70
2018,07,14,01,28,18.70
2018,07,14,01,29,18.70
2018,07,14,01,30,18.60
2018,07,14,01,31,18.60
2018,07,14,01,32,18.60
2018,07,14,01,33,18.60
2018,07,14,01,34,18.60
2018,07,14,01,35,18.60
2018,07,14,01,36,18.60
2018,07,14,01,37,18.60
2018,07,14,01,38,18.60
2018,07,14,01,39,18.60
2018,07,14,01,40,18.60
2018,07,14,01,41,18.60
2018,07,14,01,42,18.60
2018,07,14,01,43,18.50
2018,07,14,01,44,18.50
2018,07,14,01,45,18.40
2018,07,14,01,46,18.40
2018,07,14,01,47,18.40
2018,07,14,01,48,18.40
2018,07,14,01,49,18.40
2018,07,14,01,50,18.40
2018,07,14,01,51,18.40
2018,07,14,01,52,18.30
2018,07,14,01,53,18.30
2018,07,14,01,54,18.30
2018,07,14,01,55,18.30
2018,07,14,01,56,18.30
2018,07,14,01,57,18.30
2018,07,14,01,58,18.30
2018,07,14,01,59,18.30
2018,07,14,02,00,18.30
2018,07,14,02,01,18.30
2018,07,14,02,02,18.30
2018,07,14,02,03,18.30
2018,07,14,02,04,18.20
2018,07,14,02,05,18.20
2018,07,14,02,06,18.20
2018,07,14,02,07,18.20
2018,07,14,02,08,18.20
2018,07,14,02,09,18.20
2018,07,14,02,10,18.20
2018,07,14,02,11,18.10
2018,07,14,02,12,18.10
2018,07,14,02,13,18.10
2018,07,14,02,14,18.10
2018,07,14,02,15,18.10
2018,07,14,02,16,18.10
2018,07,14,02,17,18.00
2018,07,14,02,18,18.00
2018,07,14,02,19,18.00
2018,07,14,02,20,17.90
2018,07,14,02,21,17.90
2018,07,14,02,22,17.90
2018,07,14,02,23,17.90
2018,07,14,02,24,17.90
2018,07,14,02,25,17.90
2018,07,14,02,26,17.90
2018,07,14,02,27,17.90
2018,07,14,02,28,17.90
2018,07,14,02,29,17.90
2018,07,14,02,30,17.90
2018,07,14,02,31,17.90
2018,07,14,02,32,17.80
2018,07,14,02,33,17.80
2018,07,14,02,34,17.80
2018,07,14,02,35,17.80
2018,07,14,02,36,17.80
2018,07,14,02,37,17.80
2018,07,14,02,38,17.80
2018,07,14,02,39,17.80
2018,07,14,02,40,17.80
2018,07,14,02,41,17.80
2018,07,14,02,42,17.80
2018,07,14,02,43,17.80
2018,07,14,02,44,17.80
2018,07,14,02,45,17.80
2018,07,14,02,46,17.80
2018,07,14,02,47,17.80
2018,07,14,02,48,17.80
2018,07,14,02,49,17.80
2018,07,14,02,50,17.80
2018,07,14,02,51,17.80
2018,07,14,02,52,17.80
2018,07,14,02,53,17.70
2018,07,14,02,54,17.50
2018,07,14,02,55,17.20
2018,07,14,02,56,16.90
2018,07,14,02,57,16.70
2018,07,14,02,58,16.50
2018,07,14,02,59,16.30
2018,07,14,03,00,16.20
2018,07,14,03,01,16.00
2018,07,14,03,02,15.90
2018,07,14,03,03,15.80
2018,07,14,03,04,15.70
2018,07,14,03,05,15.60
2018,07,14,03,06,15.60
2018,07,14,03,07,15.50
2018,07,14,03,08,15.50
2018,07,14,03,09,15.40
2018,07,14,03,10,15.40
2018,07,14,03,11,15.30
2018,07,14,03,12,15.30
2018,07,14,03,13,15.30
2018,07,14,03,14,15.30
2018,07,14,03,15,15.50
2018,07,14,03,16,15.70
2018,07,14,03,17,16.00
2018,07,14,03,18,16.10
2018,07,14,03,19,16.30
2018,07,14,03,20,16.50
2018,07,14,03,21,16.60
2018,07,14,03,22,16.70
2018,07,14,03,23,16.80
2018,07,14,03,24,16.90
2018,07,14,03,25,16.90
2018,07,14,03,26,17.00
2018,07,14,03,27,17.10
2018,07,14,03,28,17.10
2018,07,14,03,29,17.20
2018,07,14,03,30,17.20
2018,07,14,03,31,17.20
2018,07,14,03,32,17.30
2018,07,14,03,33,17.30
2018,07,14,03,34,17.30
2018,07,14,03,35,17.30
2018,07,14,03,36,17.30
2018,07,14,03,37,17.30
2018,07,14,03,38,17.30
2018,07,14,03,39,17.30
2018,07,14,03,40,17.30
2018,07,14,03,41,17.30
2018,07,14,03,42,17.30
2018,07,14,03,43,17.30
2018,07,14,03,44,17.30
2018,07,14,03,45,17.30
2018,07,14,03,46,17.30
2018,07,14,03,47,17.30
2018,07,14,03,48,17.30
2018,07,14,03,49,17.30
2018,07,14,03,50,17.30
2018,07,14,03,51,17.30
2018,07,14,03,52,17.30
2018,07,14,03,53,17.30
2018,07,14,03,54,17.20
2018,07,14,03,55,17.20
2018,07,14,03,56,17.20
2018,07,14,03,57,17.20
2018,07,14,03,58,17.10
2018,07,14,03,59,17.10
2018,07,14,04,00,17.10
2018,07,14,04,01,17.00
2018,07,14,04,02,17.00
2018,07,14,04,03,16.90
2018,07,14,04,04,16.90
2018,07,14,04,05,17.00
2018,07,14,04,06,16.90
2018,07,14,04,07,16.90
2018,07,14,04,08,17.00
2018,07,14,04,09,17.00
2018,07,14,04,10,17.00
2018,07,14,04,11,17.00
2018,07,14,04,12,17.00
2018,07,14,04,13,17.00
2018,07,14,04,14,17.00
2018,07,14,04,15,17.00
2018,07,14,04,16,17.00
2018,07,14,04,17,17.00
2018,07,14,04,18,16.90
2018,07,14,04,19,16.90
2018,07,14,04,20,16.90
2018,07,14,04,21,16.90
2018,07,14,04,22,16.90
2018,07,14,04,23,16.90
2018,07,14,04,24,16.90
2018,07,14,04,25,16.80
2018,07,14,04,26,16.80
2018,07,14,04,27,16.80
2018,07,14,04,28,16.80
2018,07,14,04,29,16.70
2018,07,14,04,30,16.70
2018,07,14,04,31,16.70
2018,07,14,04,32,16.70
2018,07,14,04,33,16.70
2018,07,14,04,34,16.60
2018,07,14,04,35,16.60
2018,07,14,04,36,16.60
2018,07,14,04,37,16.60
2018,07,14,04,38,16.60
2018,07,14,04,39,16.60
2018,07,14,04,40,16.60
2018,07,14,04,41,16.50
2018,07,14,04,42,16.40
2018,07,14,04,43,16.10
2018,07,14,04,44,15.70
2018,07,14,04,45,15.30
2018,07,14,04,46,15.00
2018,07,14,04,47,14.70
2018,07,14,04,48,14.50
2018,07,14,04,49,14.40
2018,07,14,04,50,14.30
2018,07,14,04,51,14.20
2018,07,14,04,52,14.10
2018,07,14,04,53,14.00
2018,07,14,04,54,13.90
2018,07,14,04,55,13.80
2018,07,14,04,56,13.70
2018,07,14,04,57,13.60
2018,07,14,04,58,13.60
2018,07,14,04,59,13.50
2018,07,14,05,00,13.40
2018,07,14,05,01,13.40
2018,07,14,05,02,13.30
2018,07,14,05,03,13.20
2018,07,14,05,04,13.20
2018,07,14,05,05,13.10
2018,07,14,05,06,13.00
2018,07,14,05,07,13.00
2018,07,14,05,08,12.90
2018,07,14,05,09,12.90
2018,07,14,05,10,12.80
2018,07,14,05,11,12.80
2018,07,14,05,12,12.80
2018,07,14,05,13,12.70
2018,07,14,05,14,12.70
2018,07,14,05,15,12.60
2018,07,14,05,16,12.60
2018,07,14,05,17,12.60
2018,07,14,05,18,12.50
2018,07,14,05,19,12.50
2018,07,14,05,20,12.50
2018,07,14,05,21,12.40
2018,07,14,05,22,12.40
2018,07,14,05,23,12.40
2018,07,14,05,24,12.40
2018,07,14,05,25,12.30
2018,07,14,05,26,12.30
2018,07,14,05,27,12.30
2018,07,14,05,28,12.30
2018,07,14,05,29,12.30
2018,07,14,05,30,12.30
2018,07,14,05,31,12.20
2018,07,14,05,32,12.20
2018,07,14,05,33,12.20
2018,07,14,05,34,12.20
2018,07,14,05,35,12.20
2018,07,14,05,36,12.10
2018,07,14,05,37,12.10
2018,07,14,05,38,12.10
2018,07,14,05,39,12.10
2018,07,14,05,40,12.10
2018,07,14,05,41,12.00
2018,07,14,05,42,12.00
2018,07,14,05,43,12.00
2018,07,14,05,44,11.90
2018,07,14,05,45,11.90
2018,07,14,05,46,11.90
2018,07,14,05,47,11.90
2018,07,14,05,48,11.90
2018,07,14,05,49,11.80
2018,07,14,05,50,11.80
2018,07,14,05,51,11.80
2018,07,14,05,52,11.80
2018,07,14,05,53,11.80
2018,07,14,05,54,11.80
2018,07,14,05,55,11.80
2018,07,14,05,56,11.80
2018,07,14,05,57,11.80
2018,07,14,05,58,11.70
2018,07,14,05,59,11.70
2018,07,14,06,00,11.70
2018,07,14,06,01,11.70
2018,07,14,06,02,11.70
2018,07,14,06,03,11.70
2018,07,14,06,04,11.70
2018,07,14,06,05,11.70
2018,07,14,06,06,11.70
2018,07,14,06,07,11.70
2018,07,14,06,08,11.70
2018,07,14,06,09,11.70
2018,07,14,06,10,11.70
2018,07,14,06,11,11.70
2018,07,14,06,12,11.70
2018,07,14,06,13,11.70
2018,07,14,06,14,11.70
2018,07,14,06,15,11.70
2018,07,14,06,16,11.70
2018,07,14,06,17,11.60
2018,07,14,06,18,11.60
2018,07,14,06,19,11.60
2018,07,14,06,20,11.60
2018,07,14,06,21,11.60
2018,07,14,06,22,11.60
2018,07,14,06,23,11.60
2018,07,14,06,24,11.60
2018,07,14,06,25,11.60
2018,07,14,06,26,11.60
2018,07,14,06,27,11.60
2018,07,14,06,28,11.60
2018,07,14,06,29,11.60
2018,07,14,06,30,11.60
2018,07,14,06,31,11.60
2018,07,14,06,32,11.60
2018,07,14,06,33,11.60
2018,07,14,06,34,11.70
2018,07,14,06,35,11.70
2018,07,14,06,36,11.80
2018,07,14,06,37,11.80
2018,07,14,06,38,11.90
2018,07,14,06,39,12.00
2018,07,14,06,40,12.10
2018,07,14,06,41,12.10
2018,07,14,06,42,12.20
2018,07,14,06,43,12.30
2018,07,14,06,44,12.30
2018,07,14,06,45,12.40
2018,07,14,06,46,12.40
2018,07,14,06,47,12.50
2018,07,14,06,48,12.60
2018,07,14,06,49,12.60
2018,07,14,06,50,12.60
2018,07,14,06,51,12.70
2018,07,14,06,52,12.70
2018,07,14,06,53,12.70
2018,07,14,06,54,12.70
2018,07,14,06,55,12.80
2018,07,14,06,56,12.80
2018,07,14,06,57,12.80
2018,07,14,06,58,12.80
2018,07,14,06,59,12.80
2018,07,14,07,00,12.80
2018,07,14,07,01,12.80
2018,07,14,07,02,12.90
2018,07,14,07,03,12.90
2018,07,14,07,04,13.00
2018,07,14,07,05,13.00
2018,07,14,07,06,13.00
2018,07,14,07,07,13.00
2018,07,14,07,08,13.10
2018,07,14,07,09,13.10
2018,07,14,07,10,13.10
2018,07,14,07,11,13.10
2018,07,14,07,12,13.10
2018,07,14,07,13,13.20
2018,07,14,07,14,13.20
2018,07,14,07,15,13.20
2018,07,14,07,16,13.20
2018,07,14,07,17,13.30
2018,07,14,07,18,13.30
2018,07,14,07,19,13.30
2018,07,14,07,20,13.40
2018,07,14,07,21,13.40
2018,07,14,07,22,13.50
2018,07,14,07,23,13.60
2018,07,14,07,24,13.60
2018,07,14,07,25,13.70
2018,07,14,07,26,13.70
2018,07,14,07,27,13.80
2018,07,14,07,28,13.80
2018,07,14,07,29,13.90
2018,07,14,07,30,13.90
2018,07,14,07,31,14.10
2018,07,14,07,32,14.20
2018,07,14,07,33,14.30
2018,07,14,07,34,14.40
2018,07,14,07,35,14.60
2018,07,14,07,36,14.70
2018,07,14,07,37,14.80
2018,07,14,07,38,14.80
2018,07,14,07,39,14.90
2018,07,14,07,40,15.00
2018,07,14,07,41,15.10
2018,07,14,07,42,15.10
2018,07,14,07,43,15.10
2018,07,14,07,44,15.20
2018,07,14,07,45,15.20
2018,07,14,07,46,15.20
2018,07,14,07,47,15.20
2018,07,14,07,48,15.30
2018,07,14,07,49,15.30
2018,07,14,07,50,15.40
2018,07,14,07,51,15.40
2018,07,14,07,52,15.50
2018,07,14,07,53,15.60
2018,07,14,07,54,15.70
2018,07,14,07,55,15.70
2018,07,14,07,56,15.80
2018,07,14,07,57,15.80
2018,07,14,07,58,15.90
2018,07,14,07,59,16.00
2018,07,14,08,00,16.10
2018,07,14,08,01,16.10
2018,07,14,08,02,16.20
2018,07,14,08,03,16.20
2018,07,14,08,04,16.30
2018,07,14,08,05,16.40
2018,07,14,08,06,16.40
2018,07,14,08,07,16.50
2018,07,14,08,08,16.60
2018,07,14,08,09,16.60
2018,07,14,08,10,16.70
2018,07,14,08,11,16.80
2018,07,14,08,12,16.90
2018,07,14,08,13,16.90
2018,07,14,08,14,16.90
2018,07,14,08,15,17.00
2018,07,14,08,16,17.00
2018,07,14,08,17,17.00
2018,07,14,08,18,17.10
2018,07,14,08,19,17.10
2018,07,14,08,20,17.20
2018,07,14,08,21,17.30
2018,07,14,08,22,17.30
2018,07,14,08,23,17.40
2018,07,14,08,24,17.40
2018,07,14,08,25,17.50
2018,07,14,08,26,17.60
2018,07,14,08,27,17.60
2018,07,14,08,28,17.70
2018,07,14,08,29,17.70
2018,07,14,08,30,17.80
2018,07,14,08,31,17.80
2018,07,14,08,32,17.80
2018,07,14,08,33,17.90
2018,07,14,08,34,17.90
2018,07,14,08,35,18.00
2018,07,14,08,36,18.10
2018,07,14,08,37,18.10
2018,07,14,08,38,18.20
2018,07,14,08,39,18.20
2018,07,14,08,40,18.20
2018,07,14,08,41,18.30
2018,07,14,08,42,18.30
2018,07,14,08,43,18.40
2018,07,14,08,44,18.40
2018,07,14,08,45,18.50
2018,07,14,08,46,18.50
2018,07,14,08,47,18.60
2018,07,14,08,48,18.70
2018,07,14,08,49,18.80
2018,07,14,08,50,18.80
2018,07,14,08,51,18.90
2018,07,14,08,52,18.90
2018,07,14,08,53,18.90
2018,07,14,08,54,19.00
2018,07,14,08,55,19.00
2018,07,14,08,56,19.10
2018,07,14,08,57,19.10
2018,07,14,08,58,19.20
2018,07,14,08,59,19.20
2018,07,14,09,00,19.30
2018,07,14,09,01,19.30
2018,07,14,09,02,19.40
2018,07,14,09,03,19.50
2018,07,14,09,04,19.60
2018,07,14,09,05,19.70
2018,07,14,09,06,19.60
2018,07,14,09,07,19.60
2018,07,14,09,08,19.60
2018,07,14,09,09,19.60
2018,07,14,09,10,19.70
2018,07,14,09,11,19.70
2018,07,14,09,12,19.80
2018,07,14,09,13,19.80
2018,07,14,09,14,19.90
2018,07,14,09,15,20.00
2018,07,14,09,16,20.10
2018,07,14,09,17,20.20
2018,07,14,09,18,20.20
2018,07,14,09,19,20.30
2018,07,14,09,20,20.40
2018,07,14,09,21,20.40
2018,07,14,09,22,20.40
2018,07,14,09,23,20.40
2018,07,14,09,24,20.30
2018,07,14,09,25,20.30
2018,07,14,09,26,20.30
2018,07,14,09,27,20.40
2018,07,14,09,28,20.50
2018,07,14,09,29,20.60
2018,07,14,09,30,20.70
2018,07,14,09,31,20.60
2018,07,14,09,32,20.60
2018,07,14,09,33,20.60
2018,07,14,09,34,20.70
2018,07,14,09,35,20.70
2018,07,14,09,36,20.70
2018,07,14,09,37,20.70
2018,07,14,09,38,20.70
2018,07,14,09,39,20.70
2018,07,14,09,40,20.80
2018,07,14,09,41,20.80
2018,07,14,09,42,20.90
2018,07,14,09,43,20.90
2018,07,14,09,44,21.00
2018,07,14,09,45,21.00
2018,07,14,09,46,21.00
2018,07,14,09,47,21.00
2018,07,14,09,48,21.00
2018,07,14,09,49,21.10
2018,07,14,09,50,21.20
2018,07,14,09,51,21.20
2018,07,14,09,52,21.30
2018,07,14,09,53,21.30
2018,07,14,09,54,21.30
2018,07,14,09,55,21.30
2018,07,14,09,56,21.30
2018,07,14,09,57,21.20
2018,07,14,09,58,21.20
2018,07,14,09,59,21.20
2018,07,14,10,00,21.20
2018,07,14,10,01,21.20
2018,07,14,10,02,21.30
2018,07,14,10,03,21.30
2018,07,14,10,04,21.20
2018,07,14,10,05,21.20
2018,07,14,10,06,21.30
2018,07,14,10,07,21.30
2018,07,14,10,08,21.40
2018,07,14,10,09,21.40
2018,07,14,10,10,21.50
2018,07,14,10,11,21.60
2018,07,14,10,12,21.70
2018,07,14,10,13,21.70
2018,07,14,10,14,21.70
2018,07,14,10,15,21.80
2018,07,14,10,16,21.80
2018,07,14,10,17,21.90
2018,07,14,10,18,22.00
2018,07,14,10,19,22.10
2018,07,14,10,20,22.10
2018,07,14,10,21,22.10
2018,07,14,10,22,22.00
2018,07,14,10,23,22.00
2018,07,14,10,24,22.10
2018,07,14,10,25,22.20
2018,07,14,10,26,22.30
2018,07,14,10,27,22.30
2018,07,14,10,28,22.30
2018,07,14,10,29,22.40
2018,07,14,10,30,22.50
2018,07,14,10,31,22.50
2018,07,14,10,32,22.60
2018,07,14,10,33,22.60
2018,07,14,10,34,22.70
2018,07,14,10,35,22.80
2018,07,14,10,36,22.80
2018,07,14,10,37,22.70
2018,07,14,10,38,22.70
2018,07,14,10,39,22.70
2018,07,14,10,40,22.80
2018,07,14,10,41,22.80
2018,07,14,10,42,22.90
2018,07,14,10,43,22.90
2018,07,14,10,44,23.00
2018,07,14,10,45,23.10
2018,07,14,10,46,23.10
2018,07,14,10,47,23.10
2018,07,14,10,48,23.10
2018,07,14,10,49,23.10
2018,07,14,10,50,23.10
2018,07,14,10,51,23.00
2018,07,14,10,52,23.00
2018,07,14,10,53,23.00
2018,07,14,10,54,23.00
2018,07,14,10,55,23.00
2018,07,14,10,56,23.10
2018,07,14,10,57,23.20
2018,07,14,10,58,23.20
2018,07,14,10,59,23.30
2018,07,14,11,00,23.40
2018,07,14,11,01,23.50
2018,07,14,11,02,23.60
2018,07,14,11,03,23.70
2018,07,14,11,04,23.70
2018,07,14,11,05,23.70
2018,07,14,11,06,23.80
2018,07,14,11,07,23.90
2018,07,14,11,08,23.90
2018,07,14,11,09,23.90
2018,07,14,11,10,24.00
2018,07,14,11,11,24.00
2018,07,14,11,12,24.10
2018,07,14,11,13,24.10
2018,07,14,11,14,24.20
2018,07,14,11,15,24.20
2018,07,14,11,16,24.20
2018,07,14,11,17,24.20
2018,07,14,11,18,24.30
2018,07,14,11,19,24.30
2018,07,14,11,20,24.30
2018,07,14,11,21,24.40
2018,07,14,11,22,24.40
2018,07,14,11,23,24.40
2018,07,14,11,24,24.40
2018,07,14,11,25,24.40
2018,07,14,11,26,24.40
2018,07,14,11,27,24.40
2018,07,14,11,28,24.50
2018,07,14,11,29,24.50
2018,07,14,11,30,24.60
2018,07,14,11,31,24.60
2018,07,14,11,32,24.70
2018,07,14,11,33,24.70
2018,07,14,11,34,24.80
2018,07,14,11,35,24.90
2018,07,14,11,36,25.10
2018,07,14,11,37,25.20
2018,07,14,11,38,25.30
2018,07,14,11,39,25.30
2018,07,14,11,40,25.30
2018,07,14,11,41,25.30
2018,07,14,11,42,25.20
2018,07,14,11,43,25.30
2018,07,14,11,44,25.30
2018,07,14,11,45,25.40
2018,07,14,11,46,25.60
2018,07,14,11,47,25.60
2018,07,14,11,48,25.70
2018,07,14,11,49,25.70
2018,07,14,11,50,25.70
2018,07,14,11,51,25.60
2018,07,14,11,52,25.60
2018,07,14,11,53,25.60
2018,07,14,11,54,25.60
2018,07,14,11,55,25.60
2018,07,14,11,56,25.70
2018,07,14,11,57,25.70
2018,07,14,11,58,25.80
2018,07,14,11,59,25.80
2018,07,14,12,00,25.80
2018,07,14,12,01,25.80
2018,07,14,12,02,25.80
2018,07,14,12,03,25.80
2018,07,14,12,04,25.80
2018,07,14,12,05,25.80
2018,07,14,12,06,25.80
2018,07,14,12,07,25.80
2018,07,14,12,08,25.90
2018,07,14,12,09,25.90
2018,07,14,12,10,26.00
2018,07,14,12,11,26.00
2018,07,14,12,12,26.00
2018,07,14,12,13,26.00
2018,07,14,12,14,26.00
2018,07,14,12,15,26.00
2018,07,14,12,16,26.00
2018,07,14,12,17,26.00
2018,07,14,12,18,26.00
2018,07,14,12,19,26.00
2018,07,14,12,20,26.00
2018,07,14,12,21,25.90
2018,07,14,12,22,25.90
2018,07,14,12,23,25.90
2018,07,14,12,24,25.90
2018,07,14,12,25,26.00
2018,07,14,12,26,26.00
2018,07,14,12,27,26.10
2018,07,14,12,28,26.20
2018,07,14,12,29,26.30
2018,07,14,12,30,26.40
2018,07,14,12,31,26.50
2018,07,14,12,32,26.50
2018,07,14,12,33,26.60
2018,07,14,12,34,26.60
2018,07,14,12,35,26.60
2018,07,14,12,36,26.70
2018,07,14,12,37,26.70
2018,07,14,12,38,26.70
2018,07,14,12,39,26.70
2018,07,14,12,40,26.60
2018,07,14,12,41,26.60
2018,07,14,12,42,26.60
2018,07,14,12,43,26.60
2018,07,14,12,44,26.60
2018,07,14,12,45,26.60
2018,07,14,12,46,26.70
2018,07,14,12,47,26.70
2018,07,14,12,48,26.80
2018,07,14,12,49,26.90
2018,07,14,12,50,26.90
2018,07,14,12,51,26.90
2018,07,14,12,52,26.90
2018,07,14,12,53,26.90
2018,07,14,12,54,26.90
2018,07,14,12,55,27.00
2018,07,14,12,56,27.10
2018,07,14,12,57,27.10
2018,07,14,12,58,27.10
2018,07,14,12,59,27.10
2018,07,14,13,00,27.10
2018,07,14,13,01,27.10
2018,07,14,13,02,27.00
2018,07,14,13,03,27.00
2018,07,14,13,04,27.10
2018,07,14,13,05,27.10
2018,07,14,13,06,27.10
2018,07,14,13,07,27.10
2018,07,14,13,08,27.10
2018,07,14,13,09,27.20
2018,07,14,13,10,27.20
2018,07,14,13,11,27.30
2018,07,14,13,12,27.40
2018,07,14,13,13,27.50
2018,07,14,13,14,27.50
2018,07,14,13,15,27.60
2018,07,14,13,16,27.60
2018,07,14,13,17,27.60
2018,07,14,13,18,27.60
2018,07,14,13,19,27.70
2018,07,14,13,20,27.70
2018,07,14,13,21,27.70
2018,07,14,13,22,27.60
2018,07,14,13,23,27.70
2018,07,14,13,24,27.70
2018,07,14,13,25,27.60
2018,07,14,13,26,27.60
2018,07,14,13,27,27.50
2018,07,14,13,28,27.50
2018,07,14,13,29,27.50
2018,07,14,13,30,27.60
2018,07,14,13,31,27.70
2018,07,14,13,32,27.70
2018,07,14,13,33,27.70
2018,07,14,13,34,27.70
2018,07,14,13,35,27.70
2018,07,14,13,36,27.70
2018,07,14,13,37,27.80
2018,07,14,13,38,27.90
2018,07,14,13,39,28.00
2018,07,14,13,40,28.10
2018,07,14,13,41,28.10
2018,07,14,13,42,28.10
2018,07,14,13,43,28.10
2018,07,14,13,44,28.10
2018,07,14,13,45,28.10
2018,07,14,13,46,28.10
2018,07,14,13,47,28.10
2018,07,14,13,48,28.10
2018,07,14,13,49,28.10
2018,07,14,13,50,28.20
2018,07,14,13,51,28.30
2018,07,14,13,52,28.30
2018,07,14,13,53,28.40
2018,07,14,13,54,28.50
2018,07,14,13,55,28.50
2018,07,14,13,56,28.60
2018,07,14,13,57,28.60
2018,07,14,13,58,28.60
2018,07,14,13,59,28.70
2018,07,14,14,00,28.70
2018,07,14,14,01,28.70
2018,07,14,14,02,28.70
2018,07,14,14,03,28.70
2018,07,14,14,04,28.60
2018,07,14,14,05,28.60
2018,07,14,14,06,28.60
2018,07,14,14,07,28.60
2018,07,14,14,08,28.60
2018,07,14,14,09,28.60
2018,07,14,14,10,28.60
2018,07,14,14,11,28.60
2018,07,14,14,12,28.70
2018,07,14,14,13,28.80
2018,07,14,14,14,28.80
2018,07,14,14,15,28.80
2018,07,14,14,16,28.70
2018,07,14,14,17,28.80
2018,07,14,14,18,28.80
2018,07,14,14,19,28.90
2018,07,14,14,20,28.90
2018,07,14,14,21,28.90
2018,07,14,14,22,29.00
2018,07,14,14,23,29.00
2018,07,14,14,24,29.00
2018,07,14,14,25,29.00
2018,07,14,14,26,29.10
2018,07,14,14,27,29.10
2018,07,14,14,28,29.10
2018,07,14,14,29,29.20
2018,07,14,14,30,29.20
2018,07,14,14,31,29.20
2018,07,14,14,32,29.30
2018,07,14,14,33,29.40
2018,07,14,14,34,29.30
2018,07,14,14,35,29.20
2018,07,14,14,36,29.20
2018,07,14,14,37,29.10
2018,07,14,14,38,29.10
2018,07,14,14,39,29.10
2018,07,14,14,40,29.10
2018,07,14,14,41,29.10
2018,07,14,14,42,29.10
2018,07,14,14,43,29.00
2018,07,14,14,44,29.00
2018,07,14,14,45,29.00
2018,07,14,14,46,29.00
2018,07,14,14,47,29.00
2018,07,14,14,48,29.00
2018,07,14,14,49,29.00
2018,07,14,14,50,29.00
2018,07,14,14,51,29.00
2018,07,14,14,52,29.00
2018,07,14,14,53,29.10
2018,07,14,14,54,29.20
2018,07,14,14,55,29.20
2018,07,14,14,56,29.30
2018,07,14,14,57,29.30
2018,07,14,14,58,29.40
2018,07,14,14,59,29.40
2018,07,14,15,00,29.40
2018,07,14,15,01,29.30
2018,07,14,15,02,29.30
2018,07,14,15,03,29.30
2018,07,14,15,04,29.20
2018,07,14,15,05,29.30
2018,07,14,15,06,29.30
2018,07,14,15,07,29.30
2018,07,14,15,08,29.40
2018,07,14,15,09,29.40
2018,07,14,15,10,29.30
2018,07,14,15,11,29.30
2018,07,14,15,12,29.30
2018,07,14,15,13,29.30
2018,07,14,15,14,29.30
2018,07,14,15,15,29.30
2018,07,14,15,16,29.30
2018,07,14,15,17,29.30
2018,07,14,15,18,29.40
2018,07,14,15,19,29.50
2018,07,14,15,20,29.50
2018,07,14,15,21,29.40
2018,07,14,15,22,29.40
2018,07,14,15,23,29.50
2018,07,14,15,24,29.50
2018,07,14,15,25,29.60
2018,07,14,15,26,29.60
2018,07,14,15,27,29.60
2018,07,14,15,28,29.60
2018,07,14,15,29,29.50
2018,07,14,15,30,29.50
2018,07,14,15,31,29.60
2018,07,14,15,32,29.60
2018,07,14,15,33,29.60
2018,07,14,15,34,29.70
2018,07,14,15,35,29.70
2018,07,14,15,36,29.70
2018,07,14,15,37,29.70
2018,07,14,15,38,29.80
2018,07,14,15,39,29.80
2018,07,14,15,40,29.80
2018,07,14,15,41,29.70
2018,07,14,15,42,29.70
2018,07,14,15,43,29.80
2018,07,14,15,44,29.80
2018,07,14,15,45,29.80
2018,07,14,15,46,29.80
2018,07,14,15,47,29.90
2018,07,14,15,48,29.90
2018,07,14,15,49,29.90
2018,07,14,15,50,29.90
2018,07,14,15,51,29.90
2018,07,14,15,52,29.90
2018,07,14,15,53,29.80
2018,07,14,15,54,29.80
2018,07,14,15,55,29.80
2018,07,14,15,56,29.80
2018,07,14,15,57,29.80
2018,07,14,15,58,29.80
2018,07,14,15,59,29.80
2018,07,14,16,00,29.70
2018,07,14,16,01,29.70
2018,07,14,16,02,29.70
2018,07,14,16,03,29.70
2018,07,14,16,04,29.70
2018,07,14,16,05,29.70
2018,07,14,16,06,29.60
2018,07,14,16,07,29.70
2018,07,14,16,08,29.80
2018,07,14,16,09,29.80
2018,07,14,16,10,29.80
2018,07,14,16,11,29.90
2018,07,14,16,12,29.90
2018,07,14,16,13,29.90
2018,07,14,16,14,30.00
2018,07,14,16,15,30.10
2018,07,14,16,16,30.10
2018,07,14,16,17,30.10
2018,07,14,16,18,30.10
2018,07,14,16,19,30.10
2018,07,14,16,20,30.10
2018,07,14,16,21,30.20
2018,07,14,16,22,30.20
2018,07,14,16,23,30.30
2018,07,14,16,24,30.30
2018,07,14,16,25,30.20
2018,07,14,16,26,30.20
2018,07,14,16,27,30.20
2018,07,14,16,28,30.20
2018,07,14,16,29,30.20
2018,07,14,16,30,30.20
2018,07,14,16,31,30.20
2018,07,14,16,32,30.20
2018,07,14,16,33,30.20
2018,07,14,16,34,30.10
2018,07,14,16,35,30.10
2018,07,14,16,36,30.20
2018,07,14,16,37,30.20
2018,07,14,16,38,30.20
2018,07,14,16,39,30.20
2018,07,14,16,40,30.20
2018,07,14,16,41,30.20
2018,07,14,16,42,30.10
2018,07,14,16,43,30.10
2018,07,14,16,44,30.20
2018,07,14,16,45,30.20
2018,07,14,16,46,30.20
2018,07,14,16,47,30.20
2018,07,14,16,48,30.20
2018,07,14,16,49,30.30
2018,07,14,16,50,30.30
2018,07,14,16,51,30.30
2018,07,14,16,52,30.30
2018,07,14,16,53,30.40
2018,07,14,16,54,30.50
2018,07,14,16,55,30.60
2018,07,14,16,56,30.60
2018,07,14,16,57,30.50
2018,07,14,16,58,30.40
2018,07,14,16,59,30.40
2018,07,14,17,00,30.40
2018,07,14,17,01,30.30
2018,07,14,17,02,30.30
2018,07,14,17,03,30.20
2018,07,14,17,04,30.20
2018,07,14,17,05,30.20
2018,07,14,17,06,30.20
2018,07,14,17,07,30.20
2018,07,14,17,08,30.20
2018,07,14,17,09,30.20
2018,07,14,17,10,30.10
2018,07,14,17,11,30.20
2018,07,14,17,12,30.20
2018,07,14,17,13,30.20
2018,07,14,17,14,30.30
2018,07,14,17,15,30.30
2018,07,14,17,16,30.40
2018,07,14,17,17,30.30
2018,07,14,17,18,30.30
2018,07,14,17,19,30.30